[[{"header":{"parameterUnit":"m.s-1","parameterCategory":2,"la1":30.2992,"la2":30.254,"lo1":-89.0895,"lo2":-89.0443,"dy":0.0025,"dx":0.0025,"nx":19,"ny":19,"refTime":"2026-04-12T21:00:00:Z","depth":"0","parameterNumber":2,"parameterNumberName":"U-component_of_CURRENTS"},"data":[0,0,0,0.0484,0.0484,0.0488,0.0488,0.0475,0.0475,0,0,0,0,0,0,0,0,0,0,0,0.0484,0.0485,0.0484,0.0484,0.0488,0.0488,0.0475,0.0475,0,0,0,0,0,0,0,0,0,0,0,0.0484,0.0485,0.0485,0.0484,0.0488,0.0488,0.0475,0.0476,0,0,0,0,0,0,0,0,0,0,0.0474,0.048,0.0484,0.0485,0.0485,0.0488,0.0488,0.0476,0.0476,0.047,0,0.0477,0,0.0477,0.0474,0.0474,0,0,0,0.0479,0.048,0.048,0.0485,0.0485,0.0488,0.0485,0.0476,0.0476,0.047,0.0477,0.0476,0.0477,0.0474,0.0474,0.0441,0.0441,0,0,0.0479,0.0484,0.0481,0.0481,0.0493,0.0485,0.0485,0.0476,0.0479,0.0477,0.0476,0.0477,0.0474,0.0474,0.0441,0.0441,0,0,0,0.0482,0.0484,0.0484,0.0481,0.0484,0.0485,0.0485,0.0479,0.0479,0.0476,0.0477,0.0474,0.0474,0.0442,0.0441,0.0508,0,0,0,0.0482,0.0486,0.0484,0.0487,0.0484,0.0484,0.0489,0.048,0.0479,0.0477,0.0474,0.0474,0.0442,0.0442,0.0507,0.0567,0,0,0,0.0483,0.0486,0.0488,0.0487,0.0491,0.0485,0.0484,0.048,0.048,0.0474,0.0474,0.0442,0.0442,0.0506,0.0564,0.0653,0,0,0,0.0484,0.0486,0.0489,0.0489,0.0491,0.0476,0.0484,0.0467,0.046,0.0474,0.0442,0.0441,0.0506,0.0562,0.065,0.0837,0.0867,0,0,0.0484,0.0487,0.0485,0.0487,0.0488,0.0474,0.0477,0.047,0.0449,0.0444,0.0443,0.0508,0.0564,0.0653,0.0798,0.083,0,0,0,0.0482,0.049,0.0485,0.0493,0.0477,0.05,0.0474,0.047,0.047,0.0443,0.0475,0.0508,0.0563,0.0667,0.0691,0.0774,0.0438,0.0438,0.0438,0.0498,0.0497,0.0509,0.0513,0.051,0.0506,0.0523,0.0514,0.0473,0.0476,0.0538,0.0619,0.0726,0.0747,0.0827,0.0491,0.0491,0.0492,0.0492,0.0518,0.0534,0.0548,0.0563,0.0582,0.0588,0.0596,0.0586,0.063,0.0561,0.0611,0.07,0.0779,0.0854,0.0495,0.0495,0.0494,0.0494,0.0494,0.0529,0.0544,0.0561,0.0609,0.0656,0.0666,0.0756,0.0737,0.0718,0.0759,0.0894,0.0895,0.099,0.079,0.0791,0.0791,0.0792,0.0792,0.0793,0.0544,0.0564,0.0603,0.066,0.0701,0.0785,0.0854,0.0922,0.1014,0.1006,0.1007,0.1036,0.0711,0.0732,0.0802,0.0801,0.0799,0.0798,0.0798,0.0574,0.0586,0.0636,0.0681,0.0794,0.0891,0.0987,0.1208,0.1284,0.1377,0.1405,0.1145,0.1159,0.1139,0.117,0.1351,0.1351,0.1351,0.1351,0.0599,0.0607,0.0676,0.074,0.0847,0.0939,0.1147,0.1342,0.1568,0.1679,0.1674,0.1639,0.1612,0.1647,0.1617,0.1654,0.1952,0.1953,0.1953,0.064,0.0648,0.0698,0.0752,0.0859,0.099,0.1154,0.1379,0.1783,0.1976,0.1754,0.1729,0.1662,0.1615,0.1648,0.1599,0.1649,0,0]},{"header":{"parameterUnit":"m.s-1","parameterCategory":2,"la1":30.2992,"la2":30.254,"lo1":-89.0895,"lo2":-89.0443,"dy":0.0025,"dx":0.0025,"nx":19,"ny":19,"refTime":"2026-04-12T21:00:00:Z","depth":"0","parameterNumber":3,"parameterNumberName":"V-component_of_CURRENTS"},"data":[0,0,0,-0.0009,-0.001,-0.004,-0.0041,-0.0086,-0.0087,0,0,0,0,0,0,0,0,0,0,0,0.0001,0.0001,-0.0009,-0.001,-0.004,-0.0041,-0.0086,-0.0087,0,0,0,0,0,0,0,0,0,0,0,0.0001,0.0001,0.0001,-0.001,-0.004,-0.0041,-0.0086,-0.0063,0,0,0,0,0,0,0,0,0,0,-0.0032,-0.002,0.0001,0.0001,-0.001,-0.004,-0.0041,-0.0061,-0.0064,-0.0073,0,-0.0075,0,-0.008,-0.009,-0.009,0,0,0,-0.0015,-0.0018,-0.0025,0.0001,-0.001,-0.004,-0.0028,-0.0063,-0.0066,-0.0076,-0.0075,-0.0077,-0.0081,-0.009,-0.009,-0.0106,-0.0106,0,0,-0.0013,-0.0006,-0.0023,-0.0027,-0.0015,-0.0027,-0.0029,-0.0065,-0.0067,-0.0075,-0.0078,-0.0081,-0.009,-0.009,-0.0106,-0.0106,0,0,0,-0.0005,-0.0005,-0.0012,-0.0025,-0.0029,-0.0028,-0.003,-0.0065,-0.0067,-0.0079,-0.0082,-0.009,-0.0091,-0.0106,-0.0106,-0.008,0,0,0,-0.0004,-0.0,-0.0011,-0.0008,-0.0028,-0.0047,-0.003,-0.0065,-0.0069,-0.0082,-0.009,-0.0091,-0.0106,-0.0106,-0.0081,-0.0048,0,0,0,0.0002,0.0,-0.0002,-0.0007,-0.0018,-0.0046,-0.005,-0.0066,-0.0071,-0.009,-0.0091,-0.0106,-0.0106,-0.0082,-0.005,0.0031,0,0,0,0.0008,0.001,-0.0002,-0.0005,-0.0018,-0.0034,-0.005,-0.0065,-0.008,-0.0091,-0.0106,-0.0106,-0.0082,-0.0051,0.0028,0.0241,0.027,0,0,0.0014,0.0011,0.0008,-0.0003,-0.0006,-0.003,-0.0036,-0.006,-0.0077,-0.0096,-0.0097,-0.008,-0.005,0.003,0.026,0.0289,0,0,0,0.0013,0.0021,0.0014,0.001,-0.0012,-0.0013,-0.0045,-0.0052,-0.0065,-0.0084,-0.0081,-0.0062,-0.0012,0.011,0.0133,0.0028,-0.0104,-0.0104,-0.0104,0.0043,0.0033,0.0048,0.004,0.0024,-0.0004,-0.0006,-0.002,-0.0055,-0.0051,-0.0043,0.0036,0.0164,0.0184,0.0071,-0.0056,-0.0056,-0.0056,-0.0056,0.0097,0.0121,0.0102,0.0121,0.0097,0.0087,0.0046,0.0024,0.0038,-0.0014,0.0034,0.0129,0.0211,0.0082,-0.0054,-0.0054,-0.0055,-0.0055,-0.0055,0.0146,0.0163,0.0176,0.0209,0.0212,0.0167,0.0233,0.0151,0.0095,0.0111,0.0284,0.0286,0.0179,0.0146,0.0147,0.0147,0.0148,0.0148,0.0148,0.021,0.0223,0.0276,0.0305,0.0323,0.0369,0.0341,0.0375,0.0388,0.0356,0.0359,0.0209,0.0099,0.0098,0.0156,0.0155,0.0154,0.0153,0.0152,0.0309,0.0304,0.0378,0.0417,0.0501,0.0631,0.0629,0.0772,0.0761,0.0825,0.0534,0.0503,0.0531,0.0515,0.0526,0.0691,0.0691,0.0691,0.0691,0.0375,0.0377,0.0481,0.0551,0.0667,0.0748,0.1024,0.1109,0.0959,0.0839,0.0688,0.0648,0.0631,0.0657,0.0638,0.0647,0.0839,0.0838,0.0838,0.0464,0.0463,0.0558,0.0606,0.0721,0.0916,0.1188,0.1305,0.1046,0.0818,0.0492,0.0486,0.0389,0.0371,0.038,0.0361,0.0365,0,0]}],[{"header":{"parameterUnit":"m.s-1","parameterCategory":2,"la1":30.2992,"la2":30.254,"lo1":-89.0895,"lo2":-89.0443,"dy":0.0025,"dx":0.0025,"nx":19,"ny":19,"refTime":"2026-04-12T21:00:00:Z","depth":"2","parameterNumber":2,"parameterNumberName":"U-component_of_CURRENTS"},"data":[0,0,0,0.0533,0.0533,0.0544,0.0544,0.054,0.054,0,0,0,0,0,0,0,0,0,0,0,0.0529,0.0529,0.0533,0.0533,0.0544,0.0544,0.054,0.054,0,0,0,0,0,0,0,0,0,0,0,0.0529,0.0529,0.053,0.0533,0.0544,0.0544,0.054,0.0535,0,0,0,0,0,0,0,0,0,0,0.0526,0.0528,0.0529,0.053,0.0533,0.0544,0.0544,0.0535,0.0536,0.0531,0,0.0538,0,0.054,0.054,0.054,0,0,0,0.0529,0.0528,0.0531,0.053,0.0533,0.0544,0.0538,0.0536,0.0536,0.0532,0.0538,0.0538,0.054,0.054,0.054,0.0512,0.0511,0,0,0.0528,0.053,0.0531,0.0532,0.0542,0.0538,0.0538,0.0536,0.0538,0.0538,0.0538,0.054,0.054,0.054,0.0512,0.0511,0,0,0,0.0529,0.0529,0.0533,0.0532,0.0536,0.0538,0.0539,0.0538,0.054,0.0538,0.054,0.054,0.054,0.0512,0.0512,0.0569,0,0,0,0.0529,0.053,0.0532,0.0533,0.0536,0.054,0.0542,0.054,0.054,0.054,0.054,0.054,0.0512,0.0512,0.0568,0.0624,0,0,0,0.0528,0.053,0.0533,0.0533,0.054,0.054,0.0542,0.054,0.0542,0.054,0.054,0.0513,0.0512,0.0568,0.0621,0.0709,0,0,0,0.0526,0.0528,0.0533,0.0534,0.054,0.0531,0.0542,0.0529,0.0524,0.054,0.0512,0.0512,0.0567,0.0619,0.0706,0.0863,0.0889,0,0,0.0524,0.0528,0.0526,0.0532,0.0536,0.0528,0.0533,0.053,0.0513,0.0512,0.0511,0.0569,0.0621,0.0708,0.0824,0.0852,0,0,0,0.0523,0.0531,0.0527,0.0537,0.0527,0.055,0.0531,0.053,0.0533,0.051,0.0539,0.057,0.0624,0.071,0.0731,0.0509,0.0509,0.0509,0.0509,0.0532,0.0534,0.0547,0.0555,0.0554,0.0555,0.0573,0.0569,0.0534,0.0536,0.0593,0.0669,0.0757,0.0776,0.0549,0.0549,0.055,0.055,0.055,0.0553,0.0571,0.0583,0.06,0.0618,0.0626,0.0638,0.063,0.0677,0.0613,0.0663,0.0736,0.0804,0.0554,0.0553,0.0552,0.0552,0.0552,0.0552,0.0567,0.0583,0.0599,0.0644,0.0686,0.0695,0.0785,0.077,0.0755,0.0795,0.0914,0.0914,0.0759,0.0826,0.0826,0.0827,0.0828,0.0828,0.0828,0.0589,0.0606,0.0644,0.0694,0.0732,0.0806,0.0876,0.0945,0.1027,0.1013,0.1014,0.0763,0.0754,0.0775,0.0838,0.0836,0.0835,0.0834,0.0833,0.0627,0.0635,0.0687,0.0729,0.0819,0.0904,0.0992,0.1194,0.1277,0.1358,0.1148,0.1137,0.1152,0.1135,0.1164,0.1324,0.1324,0.1324,0.1325,0.0656,0.0663,0.0736,0.079,0.0874,0.0945,0.1119,0.1224,0.1314,0.129,0.129,0.1218,0.1203,0.1213,0.1194,0.122,0.1395,0.1394,0.1393,0.0697,0.0711,0.0767,0.0806,0.0887,0.098,0.1099,0.1157,0.1257,0.1378,0.1112,0.1366,0.126,0.1236,0.1245,0.1217,0.1256,0,0]},{"header":{"parameterUnit":"m.s-1","parameterCategory":2,"la1":30.2992,"la2":30.254,"lo1":-89.0895,"lo2":-89.0443,"dy":0.0025,"dx":0.0025,"nx":19,"ny":19,"refTime":"2026-04-12T21:00:00:Z","depth":"2","parameterNumber":3,"parameterNumberName":"V-component_of_CURRENTS"},"data":[0,0,0,-0.0091,-0.0092,-0.0119,-0.0119,-0.0163,-0.0164,0,0,0,0,0,0,0,0,0,0,0,-0.0082,-0.0083,-0.0091,-0.0092,-0.0119,-0.0119,-0.0163,-0.0164,0,0,0,0,0,0,0,0,0,0,0,-0.0082,-0.0083,-0.0083,-0.0092,-0.0119,-0.0119,-0.0163,-0.0141,0,0,0,0,0,0,0,0,0,0,-0.0114,-0.0104,-0.0083,-0.0083,-0.0092,-0.0119,-0.0119,-0.014,-0.0143,-0.0152,0,-0.0154,0,-0.0158,-0.0166,-0.0166,0,0,0,-0.0097,-0.0102,-0.0107,-0.0083,-0.0092,-0.0119,-0.0108,-0.0142,-0.0144,-0.0155,-0.0154,-0.0156,-0.0158,-0.0167,-0.0167,-0.0175,-0.0175,0,0,-0.0095,-0.009,-0.0105,-0.0109,-0.0096,-0.0107,-0.0109,-0.0143,-0.0146,-0.0154,-0.0157,-0.0159,-0.0167,-0.0167,-0.0175,-0.0175,0,0,0,-0.0088,-0.0089,-0.0094,-0.0107,-0.011,-0.0108,-0.011,-0.0145,-0.0146,-0.0157,-0.016,-0.0167,-0.0168,-0.0175,-0.0175,-0.0153,0,0,0,-0.0087,-0.0085,-0.0093,-0.0091,-0.0109,-0.0127,-0.011,-0.0143,-0.0147,-0.0159,-0.0167,-0.0168,-0.0176,-0.0175,-0.0154,-0.0134,0,0,0,-0.0082,-0.0084,-0.0086,-0.0091,-0.01,-0.0126,-0.0129,-0.0144,-0.0148,-0.0166,-0.0168,-0.0176,-0.0175,-0.0155,-0.0136,-0.0069,0,0,0,-0.0078,-0.0078,-0.0086,-0.0089,-0.01,-0.011,-0.0129,-0.0142,-0.0156,-0.0167,-0.0176,-0.0175,-0.0155,-0.0137,-0.0071,-0.0047,-0.0036,0,0,-0.0075,-0.0077,-0.008,-0.0087,-0.009,-0.0107,-0.011,-0.0136,-0.015,-0.0167,-0.0167,-0.0154,-0.0136,-0.007,-0.0018,-0.0007,0,0,0,-0.0077,-0.0073,-0.0077,-0.0082,-0.0094,-0.0095,-0.012,-0.0124,-0.0134,-0.0155,-0.0149,-0.0139,-0.0097,-0.0088,-0.0079,-0.0173,-0.0173,-0.0173,-0.0173,-0.0062,-0.0068,-0.006,-0.0065,-0.0073,-0.0089,-0.0088,-0.0096,-0.0122,-0.0116,-0.0118,-0.0049,-0.004,-0.0032,-0.012,-0.012,-0.012,-0.012,-0.012,-0.0032,-0.0015,-0.0029,-0.0015,-0.0026,-0.0028,-0.0051,-0.0064,-0.0047,-0.0087,-0.0047,-0.0062,-0.0021,-0.0118,-0.0119,-0.0119,-0.0119,-0.0119,-0.0119,-0.0003,0.0011,0.0021,0.0044,0.0051,0.0026,0.0083,0.0032,-0.0007,0.0008,0.0051,0.0051,-0.0014,0.004,0.0041,0.0041,0.0041,0.0042,0.0042,0.0044,0.0053,0.0081,0.0111,0.0116,0.0148,0.0163,0.0195,0.0157,0.0092,0.0093,0.0006,0.0001,-0.0003,0.0048,0.0047,0.0046,0.0045,0.0045,0.0114,0.0116,0.0139,0.0157,0.0188,0.0198,0.0248,0.0303,0.0348,0.0335,0.0152,0.0147,0.0154,0.0146,0.0145,0.0232,0.0232,0.0232,0.0232,0.0164,0.0167,0.0162,0.0167,0.0185,0.0214,0.0265,0.027,0.0231,0.0129,0.0133,0.007,0.0066,0.0063,0.0057,0.0052,0.0115,0.0115,0.0114,0.0226,0.02,0.0178,0.0158,0.0151,0.0188,0.0174,0.0229,0.0189,0.0102,0.0028,0.0241,0.0157,0.0148,0.0147,0.0136,0.013,0,0]}],[{"header":{"parameterUnit":"m.s-1","parameterCategory":2,"la1":30.2992,"la2":30.254,"lo1":-89.0895,"lo2":-89.0443,"dy":0.0025,"dx":0.0025,"nx":19,"ny":19,"refTime":"2026-04-12T21:00:00:Z","depth":"4","parameterNumber":2,"parameterNumberName":"U-component_of_CURRENTS"},"data":[0,0,0,0.0493,0.0494,0.0557,0.0558,0.066,0.066,0,0,0,0,0,0,0,0,0,0,0,0.0474,0.0475,0.0493,0.0494,0.0557,0.0558,0.0659,0.066,0,0,0,0,0,0,0,0,0,0,0,0.0474,0.0475,0.0475,0.0494,0.0557,0.0558,0.0659,0.0607,0,0,0,0,0,0,0,0,0,0,0.0543,0.0521,0.0474,0.0475,0.0495,0.0557,0.0558,0.0604,0.061,0.0636,0,0.0648,0,0.0656,0.0668,0.0668,0,0,0,0.0496,0.0515,0.0533,0.0475,0.0495,0.0557,0.0529,0.0607,0.0614,0.0644,0.065,0.0654,0.0657,0.0668,0.0669,0.0695,0.0694,0,0,0.0493,0.0486,0.0529,0.0538,0.0516,0.0527,0.0531,0.0611,0.062,0.065,0.0656,0.0659,0.0669,0.067,0.0695,0.0694,0,0,0,0.0481,0.0483,0.0499,0.0534,0.0543,0.0529,0.0534,0.0617,0.0622,0.0657,0.066,0.067,0.0671,0.0696,0.0695,0.0696,0,0,0,0.0479,0.0476,0.0498,0.0494,0.0541,0.0577,0.0537,0.0617,0.0626,0.066,0.067,0.0672,0.0696,0.0695,0.0697,0.0741,0,0,0,0.047,0.0475,0.0484,0.0493,0.0519,0.0576,0.0586,0.0619,0.0628,0.0668,0.0672,0.0697,0.0695,0.0698,0.0741,0.0784,0,0,0,0.0459,0.0468,0.0484,0.0495,0.0519,0.0535,0.0586,0.0601,0.0628,0.067,0.0696,0.0695,0.0699,0.0741,0.0784,0.067,0,0,0,0.046,0.0469,0.0473,0.0488,0.0504,0.0526,0.0543,0.0598,0.0619,0.0674,0.0674,0.0697,0.0741,0.0784,0.0598,0,0,0,0,0.0465,0.0475,0.0479,0.0497,0.0509,0.054,0.057,0.0585,0.0624,0.0631,0.0672,0.07,0.0728,0.0656,0.0689,0.0689,0.0689,0.0689,0.069,0.0461,0.0472,0.0481,0.0499,0.0515,0.0544,0.0575,0.0602,0.0607,0.0607,0.068,0.0691,0.0608,0.0633,0.0633,0.0633,0.0633,0.0633,0.0633,0.0461,0.047,0.0488,0.0502,0.0531,0.0549,0.06,0.0613,0.0679,0.0653,0.0679,0.0634,0.0633,0.0633,0.0633,0.0633,0.0633,0.0633,0.0633,0.0462,0.0468,0.0477,0.0494,0.0521,0.0551,0.0585,0.0637,0.0702,0.0739,0.0676,0.0715,0.0743,0.0744,0.0744,0.0745,0.0745,0.0745,0.0745,0.0457,0.0468,0.0465,0.0482,0.0476,0.0497,0.0578,0.0626,0.071,0.0698,0.0753,0.073,0.0726,0.075,0.0751,0.075,0.0749,0.0749,0.0748,0.0456,0.0458,0.0444,0.0432,0.0415,0.0418,0.0496,0.0582,0.0653,0.0695,0.0677,0.0679,0.0689,0.0687,0.071,0.07,0.0698,0.0697,0,0.0443,0.0449,0.0417,0.0379,0.0353,0.0369,0.0411,0.0488,0.0601,0.058,0.0683,0.066,0.0661,0.0667,0.0664,0.0687,0,0,0,0.0423,0.0417,0.0385,0.0359,0.0314,0.0352,0.042,0.044,0.0565,0.0593,0.0662,0.0671,0.0676,0.0767,0.0788,0.0784,0.0824,0,0]},{"header":{"parameterUnit":"m.s-1","parameterCategory":2,"la1":30.2992,"la2":30.254,"lo1":-89.0895,"lo2":-89.0443,"dy":0.0025,"dx":0.0025,"nx":19,"ny":19,"refTime":"2026-04-12T21:00:00:Z","depth":"4","parameterNumber":3,"parameterNumberName":"V-component_of_CURRENTS"},"data":[0,0,0,-0.0051,-0.0052,-0.0077,-0.0077,-0.006,-0.006,0,0,0,0,0,0,0,0,0,0,0,-0.0047,-0.0047,-0.0051,-0.0052,-0.0077,-0.0077,-0.006,-0.006,0,0,0,0,0,0,0,0,0,0,0,-0.0047,-0.0047,-0.0047,-0.0052,-0.0077,-0.0077,-0.0061,-0.0054,0,0,0,0,0,0,0,0,0,0,-0.0037,-0.0043,-0.0047,-0.0047,-0.0052,-0.0077,-0.0077,-0.0055,-0.0055,-0.0034,0,-0.0041,0,-0.0045,-0.0058,-0.0057,0,0,0,-0.0055,-0.0043,-0.0043,-0.0047,-0.0052,-0.0077,-0.0066,-0.0055,-0.0055,-0.0034,-0.0041,-0.0041,-0.0045,-0.0057,-0.0057,-0.0008,-0.0008,0,0,-0.0054,-0.0055,-0.0044,-0.0044,-0.0061,-0.0066,-0.0067,-0.0056,-0.0059,-0.0041,-0.004,-0.0045,-0.0057,-0.0057,-0.0008,-0.0008,0,0,0,-0.0047,-0.0054,-0.0057,-0.0044,-0.005,-0.0066,-0.0068,-0.006,-0.0059,-0.004,-0.0045,-0.0057,-0.0056,-0.0009,-0.0008,-0.0034,0,0,0,-0.0047,-0.005,-0.0056,-0.0058,-0.005,-0.0063,-0.0072,-0.006,-0.0059,-0.0045,-0.0057,-0.0056,-0.0009,-0.0009,-0.0034,-0.0045,0,0,0,-0.0045,-0.005,-0.0053,-0.0058,-0.0066,-0.0063,-0.0063,-0.0061,-0.0061,-0.0057,-0.0056,-0.0009,-0.0009,-0.0034,-0.0045,-0.0057,0,0,0,-0.0046,-0.0053,-0.0053,-0.0061,-0.0066,-0.0062,-0.0063,-0.0068,-0.0066,-0.0057,-0.0009,-0.0008,-0.0034,-0.0044,-0.0056,-0.0062,0,0,0,-0.0053,-0.0054,-0.0057,-0.0057,-0.0062,-0.0059,-0.0055,-0.0059,-0.0046,-0.001,-0.001,-0.0034,-0.0045,-0.0057,-0.0025,0,0,0,0,-0.0058,-0.0066,-0.0065,-0.007,-0.0061,-0.006,-0.0056,-0.0049,-0.0037,-0.0042,-0.0014,-0.002,-0.0027,-0.0027,-0.0005,-0.0006,-0.0006,-0.0006,-0.0006,-0.0083,-0.0077,-0.009,-0.0085,-0.0076,-0.006,-0.0054,-0.0038,-0.0028,-0.0024,-0.0026,-0.0032,-0.0031,-0.0009,-0.0009,-0.0009,-0.0009,-0.0009,-0.0009,-0.0113,-0.0124,-0.0118,-0.0133,-0.0113,-0.0105,-0.0061,-0.0054,-0.0034,-0.0024,-0.003,-0.0035,-0.0011,-0.0011,-0.0011,-0.001,-0.001,-0.001,-0.001,-0.0136,-0.0141,-0.0158,-0.0179,-0.0187,-0.0158,-0.0151,-0.0114,-0.0064,-0.006,-0.0064,-0.0047,-0.0062,-0.0071,-0.0071,-0.0071,-0.0071,-0.0071,-0.0071,-0.0153,-0.0167,-0.0199,-0.0235,-0.0249,-0.0253,-0.0221,-0.0205,-0.0152,-0.0088,-0.0074,-0.0053,-0.0051,-0.0064,-0.0073,-0.0073,-0.0072,-0.0072,-0.0072,-0.0192,-0.0188,-0.0226,-0.0253,-0.0284,-0.0284,-0.0287,-0.0246,-0.0221,-0.0185,-0.0098,-0.0096,-0.0089,-0.0086,-0.01,-0.012,-0.012,-0.012,0,-0.0209,-0.0214,-0.0232,-0.0251,-0.0256,-0.0275,-0.0241,-0.0239,-0.018,-0.0129,-0.0196,-0.0095,-0.0094,-0.0084,-0.0082,-0.0098,0,0,0,-0.0247,-0.0232,-0.0241,-0.0233,-0.0228,-0.0198,-0.0218,-0.0201,-0.0171,-0.0218,-0.0123,-0.0123,-0.0199,-0.0077,-0.0062,-0.0059,-0.008,0,0]}]]